Location: La Oliva
(42.2466°N, 2.9955°E)
Time: 10:40:02
(UTC+00:00)

YAOGAN 1 - Pass Details

Date: 22 April 2021
Orbit: 618 x 620 km, 97.9° (Epoch: 10 May)

Event Time Altitude Azimuth Distance (km) Brightness Sun altitude
Rises 19:01:11 0° 183° (S) 2,881 5.8 -5.0°
Reaches altitude 10° 19:03:28 10° 190° (S) 1,980 5.0 -5.3°
Maximum altitude 19:07:33 42° 262° (W) 892 4.0 -6.0°
Drops below altitude 10° 19:11:40 10° 333° (NNW) 1,994 6.0 -6.7°
Sets 19:13:58 0° 341° (NNW) 2,904 6.7 -7.1°
